Location: Maignaut
(43.8886°N, 0.4051°E)
Time: 19:52:51
(UTC+00:00)

ATLAS 2AS CENTAUR R/B - Pass Details

Date: 17 January 2021
Orbit: 947 x 1265 km, 63.7° (Epoch: 13 February)

Event Time Altitude Azimuth Distance (km) Brightness Sun altitude
Rises 18:31:11 0° 251° (WSW) 4,208 7.5 -18.1°
Reaches altitude 10° 18:34:19 10° 260° (W) 3,250 6.5 -18.6°
Maximum altitude 18:41:24 35° 324° (NW) 1,925 4.2 -19.9°
Enters shadow 18:48:01 11° 26° (NNE) 3,080 4.8 -21.0°
